Time,TemperatureF,DewpointF,PressureIn,WindDirection,WindDirectionDegrees,WindSpeedMPH,WindSpeedGustMPH,Humidity,HourlyPrecipIn,Conditions,Clouds,dailyrainin,SolarRadiationWatts/m^2,SoftwareType,DateUTC
2013-08-16 00:07:00,51.6,49.6,30.05,NNW,335,0.0,0.0,93,0.00,CLR,FEW,0.00,0.0,WeatherDisplay:10.37,2013-08-16 04:07:00,
2013-08-16 00:17:00,51.4,49.4,30.05,NNW,335,0.0,0.0,93,0.00,CLR,FEW,0.00,0.0,WeatherDisplay:10.37,2013-08-16 04:17:00,
2013-08-16 00:22:00,51.2,49.0,30.05,NNW,335,0.0,0.0,92,0.00,CLR,FEW,0.00,0.0,WeatherDisplay:10.37,2013-08-16 04:22:00,
2013-08-16 00:27:00,51.0,48.8,30.04,NNW,335,0.0,1.0,92,0.00,CLR,FEW,0.00,0.0,WeatherDisplay:10.37,2013-08-16 04:27:00,
2013-08-16 00:32:00,50.9,48.9,30.04,NNW,335,0.0,0.0,93,0.00,CLR,FEW,0.00,0.0,WeatherDisplay:10.37,2013-08-16 04:32:00,
2013-08-16 00:37:00,50.9,48.9,30.04,NNW,335,0.0,0.0,93,0.00,CLR,FEW,0.00,0.0,WeatherDisplay:10.37,2013-08-16 04:37:00,
2013-08-16 00:42:00,50.8,48.8,30.04,NNW,335,0.0,0.0,93,0.00,CLR,FEW,0.00,0.0,WeatherDisplay:10.37,2013-08-16 04:42:00,
2013-08-16 00:47:00,50.8,48.8,30.04,NNW,335,0.0,0.0,93,0.00,CLR,FEW,0.00,0.0,WeatherDisplay:10.37,2013-08-16 04:47:00,
2013-08-16 00:52:00,50.7,48.7,30.04,NNW,335,0.0,1.0,93,0.00,CLR,FEW,0.00,0.0,WeatherDisplay:10.37,2013-08-16 04:52:00,
2013-08-16 00:57:00,50.7,48.7,30.04,NNW,335,0.0,1.0,93,0.00,CLR,FEW,0.00,0.0,WeatherDisplay:10.37,2013-08-16 04:57:00,
2013-08-16 01:07:00,50.7,48.5,30.04,NNW,335,0.0,0.0,92,0.00,CLR,FEW,0.00,0.0,WeatherDisplay:10.37,2013-08-16 05:07:00,
2013-08-16 01:22:00,50.4,48.7,30.04,NNW,335,0.0,0.0,94,0.00,CLR,FEW,0.00,0.0,WeatherDisplay:10.37,2013-08-16 05:22:00,
2013-08-16 01:27:00,50.3,48.6,30.04,NNW,335,0.0,0.0,94,0.00,CLR,FEW,0.00,0.0,WeatherDisplay:10.37,2013-08-16 05:27:00,
2013-08-16 01:32:00,50.3,48.9,30.04,NNW,335,0.0,1.0,95,0.00,CLR,FEW,0.00,0.0,WeatherDisplay:10.37,2013-08-16 05:32:00,
2013-08-16 01:37:00,50.2,48.9,30.04,NNW,335,0.0,0.0,95,0.00,CLR,FEW,0.00,0.0,WeatherDisplay:10.37,2013-08-16 05:37:00,
2013-08-16 01:42:00,50.2,48.9,30.04,NNW,335,0.0,0.0,95,0.00,CLR,FEW,0.00,0.0,WeatherDisplay:10.37,2013-08-16 05:42:00,
2013-08-16 01:47:00,50.2,48.9,30.03,NNW,335,0.0,0.0,95,0.00,CLR,FEW,0.00,0.0,WeatherDisplay:10.37,2013-08-16 05:47:00,
2013-08-16 01:52:00,50.3,48.9,30.03,NNW,335,0.0,0.0,95,0.00,CLR,FEW,0.00,0.0,WeatherDisplay:10.37,2013-08-16 05:52:00,
2013-08-16 01:57:00,50.4,48.5,30.03,NNW,335,0.0,0.0,93,0.00,CLR,FEW,0.00,0.0,WeatherDisplay:10.37,2013-08-16 05:57:00,
2013-08-16 02:07:00,50.8,48.6,30.03,NNW,335,0.0,1.0,92,0.00,CLR,FEW,0.00,0.0,WeatherDisplay:10.37,2013-08-16 06:07:00,
2013-08-16 02:17:00,50.7,48.8,30.03,NNW,335,0.0,0.0,93,0.00,CLR,FEW,0.00,0.0,WeatherDisplay:10.37,2013-08-16 06:17:00,
2013-08-16 02:22:00,50.6,48.7,30.03,NNW,335,0.0,0.0,93,0.00,CLR,FEW,0.00,0.0,WeatherDisplay:10.37,2013-08-16 06:22:00,
2013-08-16 02:27:00,50.5,48.8,30.03,NNW,335,0.0,0.0,94,0.00,CLR,FEW,0.00,0.0,WeatherDisplay:10.37,2013-08-16 06:27:00,
2013-08-16 02:32:00,50.4,48.7,30.03,NNW,335,0.0,1.0,94,0.00,CLR,FEW,0.00,0.0,WeatherDisplay:10.37,2013-08-16 06:32:00,
2013-08-16 02:37:00,50.1,48.4,30.04,NNW,335,0.0,0.0,94,0.00,CLR,FEW,0.00,0.0,WeatherDisplay:10.37,2013-08-16 06:37:00,
2013-08-16 02:42:00,49.8,48.2,30.04,NNW,335,0.0,0.0,94,0.00,CLR,FEW,0.00,0.0,WeatherDisplay:10.37,2013-08-16 06:42:00,
2013-08-16 02:47:00,49.6,47.9,30.04,NNW,335,0.0,1.0,94,0.00,CLR,FEW,0.00,0.0,WeatherDisplay:10.37,2013-08-16 06:47:00,
2013-08-16 02:52:00,49.3,47.7,30.03,NNW,335,0.0,0.0,94,0.00,CLR,FEW,0.00,0.0,WeatherDisplay:10.37,2013-08-16 06:52:00,
2013-08-16 02:57:00,49.1,47.7,30.03,NNW,335,0.0,0.0,95,0.00,CLR,FEW,0.00,0.0,WeatherDisplay:10.37,2013-08-16 06:57:00,
2013-08-16 03:07:00,49.0,47.6,30.03,NNW,335,0.0,0.0,95,0.00,CLR,FEW,0.00,0.0,WeatherDisplay:10.37,2013-08-16 07:07:00,
2013-08-16 03:17:00,49.1,47.4,30.03,NNW,335,0.0,0.0,94,0.00,CLR,FEW,0.00,0.0,WeatherDisplay:10.37,2013-08-16 07:17:00,
2013-08-16 03:22:00,49.1,47.4,30.03,NNW,335,0.0,0.0,94,0.00,CLR,FEW,0.00,0.0,WeatherDisplay:10.37,2013-08-16 07:22:00,
2013-08-16 03:27:00,49.1,47.8,30.03,NNW,335,0.0,0.0,95,0.00,CLR,FEW,0.00,0.0,WeatherDisplay:10.37,2013-08-16 07:27:00,
2013-08-16 03:32:00,49.2,47.8,30.04,NNW,335,0.0,0.0,95,0.00,CLR,FEW,0.00,0.0,WeatherDisplay:10.37,2013-08-16 07:32:00,
2013-08-16 03:37:00,49.2,47.8,30.04,NNW,335,0.0,0.0,95,0.00,CLR,FEW,0.00,0.0,WeatherDisplay:10.37,2013-08-16 07:37:00,
2013-08-16 03:42:00,49.2,47.8,30.03,NNW,335,0.0,1.0,95,0.00,CLR,FEW,0.00,0.0,WeatherDisplay:10.37,2013-08-16 07:42:00,
2013-08-16 03:47:00,49.1,47.7,30.03,NNW,335,0.0,0.0,95,0.00,CLR,FEW,0.00,0.0,WeatherDisplay:10.37,2013-08-16 07:47:00,
2013-08-16 03:52:00,49.0,47.9,30.04,NNW,335,0.0,0.0,96,0.00,CLR,FEW,0.00,0.0,WeatherDisplay:10.37,2013-08-16 07:52:00,
2013-08-16 03:57:00,49.0,47.9,30.04,NNW,335,0.0,0.0,96,0.00,CLR,FEW,0.00,0.0,WeatherDisplay:10.37,2013-08-16 07:57:00,
2013-08-16 04:07:00,48.8,47.7,30.04,NNW,335,0.0,0.0,96,0.00,CLR,FEW,0.00,0.0,WeatherDisplay:10.37,2013-08-16 08:07:00,
2013-08-16 04:17:00,48.9,47.8,30.04,NNW,335,0.0,0.0,96,0.00,CLR,FEW,0.00,0.0,WeatherDisplay:10.37,2013-08-16 08:17:00,
2013-08-16 04:22:00,49.0,47.9,30.04,NNW,335,0.0,0.0,96,0.00,CLR,FEW,0.00,0.0,WeatherDisplay:10.37,2013-08-16 08:22:00,
2013-08-16 04:27:00,49.0,47.9,30.04,NNW,335,0.0,0.0,96,0.00,CLR,FEW,0.00,0.0,WeatherDisplay:10.37,2013-08-16 08:27:00,
2013-08-16 04:32:00,49.0,47.6,30.04,NNW,335,0.0,0.0,95,0.00,CLR,FEW,0.00,0.0,WeatherDisplay:10.37,2013-08-16 08:32:00,
2013-08-16 04:37:00,49.0,47.6,30.04,NNW,335,0.0,0.0,95,0.00,CLR,FEW,0.00,0.0,WeatherDisplay:10.37,2013-08-16 08:37:00,
2013-08-16 04:42:00,49.0,47.6,30.04,NNW,335,0.0,0.0,95,0.00,CLR,FEW,0.00,0.0,WeatherDisplay:10.37,2013-08-16 08:42:00,
2013-08-16 04:47:00,48.9,47.5,30.04,NNW,335,0.0,0.0,95,0.00,CLR,FEW,0.00,0.0,WeatherDisplay:10.37,2013-08-16 08:47:00,
2013-08-16 04:52:00,48.9,47.5,30.05,NNW,335,0.0,1.0,95,0.00,CLR,FEW,0.00,0.0,WeatherDisplay:10.37,2013-08-16 08:52:00,
2013-08-16 04:57:00,48.8,47.4,30.05,NNW,335,0.0,0.0,95,0.00,CLR,FEW,0.00,0.0,WeatherDisplay:10.37,2013-08-16 08:57:00,
2013-08-16 05:07:00,48.9,47.3,30.05,NNW,335,0.0,1.0,94,0.00,CLR,FEW,0.00,0.0,WeatherDisplay:10.37,2013-08-16 09:07:00,
2013-08-16 05:17:00,49.4,47.5,30.05,NNW,335,0.0,0.0,93,0.00,CLR,FEW,0.00,0.0,WeatherDisplay:10.37,2013-08-16 09:17:00,
2013-08-16 05:22:00,49.6,47.7,30.06,NNW,335,0.0,0.0,93,0.00,CLR,FEW,0.00,0.0,WeatherDisplay:10.37,2013-08-16 09:22:00,
2013-08-16 05:32:00,49.6,47.7,30.06,NNW,335,0.0,0.0,93,0.00,CLR,FEW,0.00,0.0,WeatherDisplay:10.37,2013-08-16 09:32:00,
2013-08-16 05:37:00,49.5,47.6,30.06,NNW,335,0.0,0.0,93,0.00,CLR,FEW,0.00,0.0,WeatherDisplay:10.37,2013-08-16 09:37:00,
2013-08-16 05:42:00,49.3,47.4,30.06,NNW,335,0.0,0.0,93,0.00,CLR,FEW,0.00,0.0,WeatherDisplay:10.37,2013-08-16 09:42:00,
2013-08-16 05:47:00,49.2,47.2,30.06,NNW,335,0.0,0.0,93,0.00,CLR,FEW,0.00,0.0,WeatherDisplay:10.37,2013-08-16 09:47:00,
2013-08-16 05:52:00,49.2,47.2,30.06,NNW,335,0.0,0.0,93,0.00,CLR,FEW,0.00,0.0,WeatherDisplay:10.37,2013-08-16 09:52:00,
2013-08-16 05:57:00,49.1,47.2,30.06,NNW,335,0.0,0.0,93,0.00,CLR,FEW,0.00,5.0,WeatherDisplay:10.37,2013-08-16 09:57:00,
2013-08-16 06:07:00,49.1,47.4,30.07,NNW,335,0.0,0.0,94,0.00,CLR,FEW,0.00,12.0,WeatherDisplay:10.37,2013-08-16 10:07:00,
2013-08-16 06:17:00,49.3,47.6,30.07,NNW,335,0.0,1.0,94,0.00,CLR,FEW,0.00,11.0,WeatherDisplay:10.37,2013-08-16 10:17:00,
2013-08-16 06:22:00,49.5,47.9,30.07,NNW,335,0.0,0.0,94,0.00,CLR,FEW,0.00,12.0,WeatherDisplay:10.37,2013-08-16 10:22:00,
2013-08-16 06:27:00,49.7,47.7,30.07,NNW,335,0.0,0.0,93,0.00,CLR,FEW,0.00,16.0,WeatherDisplay:10.37,2013-08-16 10:27:00,
2013-08-16 06:32:00,49.8,48.2,30.07,NNW,335,0.0,0.0,94,0.00,CLR,FEW,0.00,19.0,WeatherDisplay:10.37,2013-08-16 10:32:00,
2013-08-16 06:37:00,50.0,48.3,30.07,NNW,335,0.0,0.0,94,0.00,CLR,FEW,0.00,23.0,WeatherDisplay:10.37,2013-08-16 10:37:00,
2013-08-16 06:42:00,50.1,48.4,30.07,NNW,335,0.0,0.0,94,0.00,CLR,FEW,0.00,30.0,WeatherDisplay:10.37,2013-08-16 10:42:00,
2013-08-16 06:47:00,50.2,48.8,30.07,NNW,335,0.0,0.0,95,0.00,CLR,FEW,0.00,32.0,WeatherDisplay:10.37,2013-08-16 10:47:00,
2013-08-16 06:52:00,50.4,49.0,30.07,NNW,335,0.0,0.0,95,0.00,CLR,FEW,0.00,37.0,WeatherDisplay:10.37,2013-08-16 10:52:00,
2013-08-16 06:57:00,50.5,49.4,30.07,NNW,335,0.0,0.0,96,0.00,CLR,FEW,0.00,35.0,WeatherDisplay:10.37,2013-08-16 10:57:00,
2013-08-16 07:07:00,50.7,49.6,30.07,NNW,335,0.0,0.0,96,0.00,CLR,FEW,0.00,56.0,WeatherDisplay:10.37,2013-08-16 11:07:00,
2013-08-16 07:17:00,50.9,49.8,30.07,NNW,335,0.0,0.0,96,0.00,CLR,FEW,0.00,62.0,WeatherDisplay:10.37,2013-08-16 11:17:00,
2013-08-16 07:22:00,51.0,49.6,30.07,NNW,335,0.0,0.0,95,0.00,CLR,FEW,0.00,65.0,WeatherDisplay:10.37,2013-08-16 11:22:00,
2013-08-16 07:27:00,51.1,49.7,30.07,NNW,335,0.0,2.0,95,0.00,CLR,FEW,0.00,60.0,WeatherDisplay:10.37,2013-08-16 11:27:00,
2013-08-16 07:32:00,51.2,49.5,30.08,NNW,335,0.0,2.0,94,0.00,CLR,FEW,0.00,51.0,WeatherDisplay:10.37,2013-08-16 11:32:00,
2013-08-16 07:37:00,51.3,49.4,30.08,NNW,335,0.0,1.0,93,0.00,CLR,FEW,0.00,221.0,WeatherDisplay:10.37,2013-08-16 11:37:00,
2013-08-16 07:42:00,51.9,50.0,30.08,NNW,335,0.0,0.0,93,0.00,CLR,FEW,0.00,234.0,WeatherDisplay:10.37,2013-08-16 11:42:00,
2013-08-16 07:47:00,53.1,50.5,30.08,NNW,335,0.0,1.0,91,0.00,CLR,FEW,0.00,250.0,WeatherDisplay:10.37,2013-08-16 11:47:00,
2013-08-16 07:52:00,54.2,51.1,30.08,NNW,336,0.0,1.0,89,0.00,CLR,FEW,0.00,269.0,WeatherDisplay:10.37,2013-08-16 11:52:00,
2013-08-16 07:57:00,55.1,51.0,30.07,North,359,1.0,3.0,86,0.00,CLR,FEW,0.00,290.0,WeatherDisplay:10.37,2013-08-16 11:57:00,
2013-08-16 08:07:00,56.3,51.5,30.08,NNE,33,0.0,2.0,84,0.00,CLR,FEW,0.00,315.0,WeatherDisplay:10.37,2013-08-16 12:07:00,
2013-08-16 08:17:00,57.5,51.4,30.08,NNE,33,0.0,3.0,80,0.00,CLR,FEW,0.00,352.0,WeatherDisplay:10.37,2013-08-16 12:17:00,
2013-08-16 08:22:00,58.0,52.2,30.08,South,185,0.0,5.0,81,0.00,CLR,FEW,0.00,369.0,WeatherDisplay:10.37,2013-08-16 12:22:00,
2013-08-16 08:27:00,58.0,51.9,30.08,South,190,0.0,1.0,80,0.00,CLR,FEW,0.00,387.0,WeatherDisplay:10.37,2013-08-16 12:27:00,
2013-08-16 08:32:00,58.3,51.8,30.08,SSW,192,1.0,4.0,79,0.00,CLR,FEW,0.00,406.0,WeatherDisplay:10.37,2013-08-16 12:32:00,
2013-08-16 08:37:00,58.5,52.3,30.08,SSW,195,1.0,4.0,80,0.00,CLR,FEW,0.00,418.0,WeatherDisplay:10.37,2013-08-16 12:37:00,
2013-08-16 08:42:00,58.6,52.1,30.08,SSW,196,1.0,3.0,79,0.00,CLR,FEW,0.00,432.0,WeatherDisplay:10.37,2013-08-16 12:42:00,
2013-08-16 08:47:00,58.9,52.4,30.08,SSW,201,0.0,4.0,79,0.00,CLR,FEW,0.00,452.0,WeatherDisplay:10.37,2013-08-16 12:47:00,
2013-08-16 08:52:00,59.4,52.9,30.08,SSW,207,0.0,3.0,79,0.00,CLR,FEW,0.00,471.0,WeatherDisplay:10.37,2013-08-16 12:52:00,
2013-08-16 08:57:00,59.9,52.7,30.08,South,180,3.0,7.0,77,0.00,CLR,FEW,0.00,494.0,WeatherDisplay:10.37,2013-08-16 12:57:00,
2013-08-16 09:22:00,60.8,52.9,30.08,South,191,1.0,4.0,75,0.00,SCT,FEW,0.00,559.0,WeatherDisplay:10.37,2013-08-16 13:22:00,
2013-08-16 09:27:00,61.0,52.7,30.09,South,181,0.0,6.0,74,0.00,SCT,FEW,0.00,584.0,WeatherDisplay:10.37,2013-08-16 13:27:00,
2013-08-16 09:32:00,61.2,52.1,30.09,South,184,0.0,3.0,72,0.00,SCT,FEW,0.00,629.0,WeatherDisplay:10.37,2013-08-16 13:32:00,
2013-08-16 09:37:00,61.7,52.6,30.08,SSW,192,1.0,3.0,72,0.00,SCT,FEW,0.00,703.0,WeatherDisplay:10.37,2013-08-16 13:37:00,
2013-08-16 09:42:00,61.9,52.4,30.08,South,180,3.0,6.0,71,0.00,SCT,FEW,0.00,807.0,WeatherDisplay:10.37,2013-08-16 13:42:00,
2013-08-16 09:47:00,61.9,52.7,30.08,South,188,0.0,7.0,72,0.00,SCT,FEW,0.00,807.0,WeatherDisplay:10.37,2013-08-16 13:47:00,
2013-08-16 09:52:00,62.0,53.2,30.09,SSW,196,2.0,6.0,73,0.00,SCT,FEW,0.00,733.0,WeatherDisplay:10.37,2013-08-16 13:52:00,
2013-08-16 09:57:00,61.9,52.4,30.09,SSW,195,1.0,10.0,71,0.00,SCT,FEW,0.00,802.0,WeatherDisplay:10.37,2013-08-16 13:57:00,
2013-08-16 10:07:00,61.9,52.0,30.09,South,184,2.0,11.0,70,0.00,CLR,FEW,0.00,749.0,WeatherDisplay:10.37,2013-08-16 14:07:00,
2013-08-16 10:17:00,63.2,52.8,30.09,SSW,195,2.0,9.0,69,0.00,CLR,FEW,0.00,737.0,WeatherDisplay:10.37,2013-08-16 14:17:00,
2013-08-16 10:22:00,63.2,52.9,30.09,South,187,5.0,10.0,69,0.00,CLR,FEW,0.00,786.0,WeatherDisplay:10.37,2013-08-16 14:22:00,
2013-08-16 10:27:00,63.3,52.5,30.09,South,186,3.0,12.0,68,0.00,CLR,FEW,0.00,807.0,WeatherDisplay:10.37,2013-08-16 14:27:00,
2013-08-16 10:32:00,63.7,53.3,30.09,SSW,201,1.0,6.0,69,0.00,CLR,FEW,0.00,814.0,WeatherDisplay:10.37,2013-08-16 14:32:00,
2013-08-16 10:37:00,63.8,53.0,30.09,South,191,1.0,9.0,68,0.00,CLR,FEW,0.00,947.0,WeatherDisplay:10.37,2013-08-16 14:37:00,
2013-08-16 10:42:00,63.9,53.5,30.09,South,178,2.0,7.0,69,0.00,CLR,FEW,0.00,984.0,WeatherDisplay:10.37,2013-08-16 14:42:00,
2013-08-16 10:47:00,64.0,53.7,30.08,South,186,1.0,6.0,69,0.00,CLR,FEW,0.00,965.0,WeatherDisplay:10.37,2013-08-16 14:47:00,
2013-08-16 10:52:00,64.6,54.2,30.08,SSW,194,1.0,6.0,69,0.00,CLR,FEW,0.00,311.0,WeatherDisplay:10.37,2013-08-16 14:52:00,
2013-08-16 10:57:00,65.3,54.1,30.08,South,188,1.0,4.0,67,0.00,CLR,FEW,0.00,939.0,WeatherDisplay:10.37,2013-08-16 14:57:00,
2013-08-16 11:07:00,65.3,54.5,30.08,SSW,204,1.0,6.0,68,0.00,CLR,FEW,0.00,399.0,WeatherDisplay:10.37,2013-08-16 15:07:00,
2013-08-16 11:17:00,64.7,53.9,30.08,SSE,168,1.0,5.0,68,0.00,CLR,FEW,0.00,981.0,WeatherDisplay:10.37,2013-08-16 15:17:00,
2013-08-16 11:22:00,65.1,53.5,30.07,SE,134,0.0,2.0,66,0.00,CLR,FEW,0.00,967.0,WeatherDisplay:10.37,2013-08-16 15:22:00,
2013-08-16 11:27:00,65.4,53.4,30.08,SSE,155,1.0,5.0,65,0.00,CLR,FEW,0.00,1049.0,WeatherDisplay:10.37,2013-08-16 15:27:00,
2013-08-16 11:32:00,65.7,54.0,30.08,South,179,2.0,9.0,66,0.00,CLR,FEW,0.00,1151.0,WeatherDisplay:10.37,2013-08-16 15:32:00,
2013-08-16 11:37:00,65.6,53.1,30.07,South,182,3.0,10.0,64,0.00,CLR,FEW,0.00,332.0,WeatherDisplay:10.37,2013-08-16 15:37:00,
2013-08-16 11:42:00,65.7,53.2,30.08,SSW,193,3.0,10.0,64,0.00,CLR,FEW,0.00,176.0,WeatherDisplay:10.37,2013-08-16 15:42:00,
2013-08-16 11:47:00,65.4,54.2,30.08,South,182,1.0,3.0,67,0.00,CLR,FEW,0.00,123.0,WeatherDisplay:10.37,2013-08-16 15:47:00,
2013-08-16 11:52:00,65.3,54.5,30.08,SSE,158,0.0,2.0,68,0.00,CLR,FEW,0.00,165.0,WeatherDisplay:10.37,2013-08-16 15:52:00,
2013-08-16 11:57:00,65.1,54.7,30.08,South,174,0.0,1.0,69,0.00,CLR,FEW,0.00,220.0,WeatherDisplay:10.37,2013-08-16 15:57:00,
2013-08-16 12:07:00,64.8,54.0,30.08,SSW,206,0.0,2.0,68,0.00,CLR,FEW,0.00,151.0,WeatherDisplay:10.37,2013-08-16 16:07:00,
2013-08-16 12:17:00,65.0,54.2,30.07,SSW,208,1.0,4.0,68,0.00,CLR,FEW,0.00,269.0,WeatherDisplay:10.37,2013-08-16 16:17:00,
2013-08-16 12:22:00,65.3,55.7,30.08,SE,125,1.0,2.0,71,0.00,CLR,FEW,0.00,329.0,WeatherDisplay:10.37,2013-08-16 16:22:00,
2013-08-16 12:27:00,65.0,54.2,30.08,South,188,1.0,5.0,68,0.00,CLR,FEW,0.00,359.0,WeatherDisplay:10.37,2013-08-16 16:27:00,
2013-08-16 12:32:00,65.3,55.3,30.07,North,353,1.0,6.0,70,0.00,CLR,FEW,0.00,343.0,WeatherDisplay:10.37,2013-08-16 16:32:00,
2013-08-16 12:37:00,66.0,54.7,30.08,NNW,346,1.0,6.0,67,0.00,CLR,FEW,0.00,301.0,WeatherDisplay:10.37,2013-08-16 16:37:00,
2013-08-16 12:42:00,66.2,54.9,30.08,NNW,348,1.0,7.0,67,0.00,CLR,FEW,0.00,1109.0,WeatherDisplay:10.37,2013-08-16 16:42:00,
2013-08-16 12:47:00,66.7,55.0,30.08,WSW,247,1.0,6.0,66,0.00,CLR,FEW,0.00,311.0,WeatherDisplay:10.37,2013-08-16 16:47:00,
2013-08-16 12:52:00,66.6,54.5,30.07,SW,216,0.0,6.0,65,0.00,CLR,FEW,0.00,323.0,WeatherDisplay:10.37,2013-08-16 16:52:00,
2013-08-16 12:57:00,66.5,54.8,30.08,South,185,0.0,4.0,66,0.00,CLR,FEW,0.00,1157.0,WeatherDisplay:10.37,2013-08-16 16:57:00,
2013-08-16 13:07:00,67.4,54.0,30.08,SSW,202,1.0,5.0,62,0.00,BKN,FEW,0.00,281.0,WeatherDisplay:10.37,2013-08-16 17:07:00,
2013-08-16 13:17:00,67.2,55.5,30.07,NW,304,1.0,4.0,66,0.00,BKN,FEW,0.00,1181.0,WeatherDisplay:10.37,2013-08-16 17:17:00,
2013-08-16 13:22:00,67.1,54.9,30.07,SW,219,1.0,7.0,65,0.00,BKN,FEW,0.00,1027.0,WeatherDisplay:10.37,2013-08-16 17:22:00,
2013-08-16 13:27:00,67.0,53.5,30.07,South,188,3.0,5.0,62,0.00,BKN,FEW,0.00,260.0,WeatherDisplay:10.37,2013-08-16 17:27:00,
2013-08-16 13:32:00,65.9,53.4,30.07,South,187,1.0,5.0,64,0.00,BKN,FEW,0.00,279.0,WeatherDisplay:10.37,2013-08-16 17:32:00,
2013-08-16 13:37:00,66.0,54.3,30.07,SSW,204,1.0,4.0,66,0.00,BKN,FEW,0.00,1169.0,WeatherDisplay:10.37,2013-08-16 17:37:00,
2013-08-16 13:42:00,67.4,55.7,30.08,West,266,1.0,5.0,66,0.00,BKN,FEW,0.00,1137.0,WeatherDisplay:10.37,2013-08-16 17:42:00,
2013-08-16 13:47:00,68.6,56.8,30.08,NNW,341,0.0,4.0,66,0.00,BKN,FEW,0.00,199.0,WeatherDisplay:10.37,2013-08-16 17:47:00,
2013-08-16 13:52:00,68.7,55.2,30.08,NNW,332,0.0,5.0,62,0.00,BKN,FEW,0.00,232.0,WeatherDisplay:10.37,2013-08-16 17:52:00,
2013-08-16 13:57:00,68.2,54.2,30.08,NNW,330,0.0,6.0,61,0.00,BKN,FEW,0.00,1065.0,WeatherDisplay:10.37,2013-08-16 17:57:00,
2013-08-16 14:07:00,67.6,52.8,30.08,South,178,1.0,9.0,59,0.00,SCT,FEW,0.00,287.0,WeatherDisplay:10.37,2013-08-16 18:07:00,
2013-08-16 14:17:00,68.0,54.0,30.08,SW,234,0.0,6.0,61,0.00,SCT,FEW,0.00,167.0,WeatherDisplay:10.37,2013-08-16 18:17:00,
2013-08-16 14:22:00,67.4,54.4,30.08,WSW,250,0.0,5.0,63,0.00,SCT,FEW,0.00,364.0,WeatherDisplay:10.37,2013-08-16 18:22:00,
2013-08-16 14:27:00,67.0,54.4,30.08,WNW,286,0.0,4.0,64,0.00,SCT,FEW,0.00,237.0,WeatherDisplay:10.37,2013-08-16 18:27:00,
2013-08-16 14:32:00,66.4,54.3,30.08,West,277,1.0,9.0,65,0.00,SCT,FEW,0.00,230.0,WeatherDisplay:10.37,2013-08-16 18:32:00,
2013-08-16 14:37:00,66.3,55.4,30.08,West,273,0.0,2.0,68,0.00,SCT,FEW,0.00,916.0,WeatherDisplay:10.37,2013-08-16 18:37:00,
2013-08-16 14:42:00,67.1,55.7,30.08,NW,323,1.0,7.0,67,0.00,SCT,FEW,0.00,868.0,WeatherDisplay:10.37,2013-08-16 18:42:00,
2013-08-16 14:47:00,68.1,55.4,30.07,NW,324,0.0,4.0,64,0.00,SCT,FEW,0.00,279.0,WeatherDisplay:10.37,2013-08-16 18:47:00,
2013-08-16 14:52:00,68.6,55.5,30.07,North,352,1.0,4.0,63,0.00,SCT,FEW,0.00,515.0,WeatherDisplay:10.37,2013-08-16 18:52:00,
2013-08-16 14:57:00,68.4,55.3,30.07,SE,142,0.0,2.0,63,0.00,SCT,FEW,0.00,272.0,WeatherDisplay:10.37,2013-08-16 18:57:00,
2013-08-16 15:07:00,68.3,55.2,30.08,WNW,303,2.0,12.0,63,0.00,CLR,FEW,0.00,304.0,WeatherDisplay:10.37,2013-08-16 19:07:00,
2013-08-16 15:17:00,68.7,53.8,30.08,SSE,166,2.0,7.0,59,0.00,CLR,FEW,0.00,874.0,WeatherDisplay:10.37,2013-08-16 19:17:00,
2013-08-16 15:22:00,69.2,54.7,30.08,SSE,151,1.0,5.0,60,0.00,CLR,FEW,0.00,865.0,WeatherDisplay:10.37,2013-08-16 19:22:00,
2013-08-16 15:27:00,69.3,54.8,30.08,SW,221,3.0,6.0,60,0.00,CLR,FEW,0.00,902.0,WeatherDisplay:10.37,2013-08-16 19:27:00,
2013-08-16 15:32:00,69.1,54.2,30.08,NW,312,1.0,6.0,59,0.00,CLR,FEW,0.00,872.0,WeatherDisplay:10.37,2013-08-16 19:32:00,
2013-08-16 15:37:00,69.3,53.9,30.08,NW,308,1.0,5.0,58,0.00,CLR,FEW,0.00,737.0,WeatherDisplay:10.37,2013-08-16 19:37:00,
2013-08-16 15:42:00,69.1,54.2,30.08,WNW,287,1.0,5.0,59,0.00,CLR,FEW,0.00,763.0,WeatherDisplay:10.37,2013-08-16 19:42:00,
2013-08-16 15:47:00,68.9,53.5,30.07,SSW,196,1.0,6.0,58,0.00,CLR,FEW,0.00,142.0,WeatherDisplay:10.37,2013-08-16 19:47:00,
2013-08-16 15:52:00,68.5,54.5,30.08,SSE,150,0.0,4.0,61,0.00,CLR,FEW,0.00,814.0,WeatherDisplay:10.37,2013-08-16 19:52:00,
2013-08-16 15:57:00,68.3,53.4,30.08,South,190,1.0,5.0,59,0.00,CLR,FEW,0.00,185.0,WeatherDisplay:10.37,2013-08-16 19:57:00,
2013-08-16 16:07:00,67.7,54.2,30.08,WSW,241,0.0,6.0,62,0.00,SCT,FEW,0.00,698.0,WeatherDisplay:10.37,2013-08-16 20:07:00,
2013-08-16 16:17:00,69.0,54.5,30.08,WSW,253,0.0,6.0,60,0.00,SCT,FEW,0.00,652.0,WeatherDisplay:10.37,2013-08-16 20:17:00,
2013-08-16 16:22:00,69.1,54.2,30.08,NW,325,2.0,5.0,59,0.00,SCT,FEW,0.00,151.0,WeatherDisplay:10.37,2013-08-16 20:22:00,
2013-08-16 16:27:00,68.5,52.6,30.08,North,10,1.0,3.0,57,0.00,SCT,FEW,0.00,654.0,WeatherDisplay:10.37,2013-08-16 20:27:00,
2013-08-16 16:37:00,68.1,54.2,30.08,West,272,1.0,3.0,61,0.00,SCT,FEW,0.00,155.0,WeatherDisplay:10.37,2013-08-16 20:37:00,
2013-08-16 16:42:00,68.0,54.9,30.08,NW,315,0.0,2.0,63,0.00,SCT,FEW,0.00,86.0,WeatherDisplay:10.37,2013-08-16 20:42:00,
2013-08-16 16:47:00,67.6,55.0,30.08,North,8,0.0,3.0,64,0.00,SCT,FEW,0.00,629.0,WeatherDisplay:10.37,2013-08-16 20:47:00,
2013-08-16 16:52:00,67.4,53.5,30.08,ESE,121,0.0,2.0,61,0.00,SCT,FEW,0.00,598.0,WeatherDisplay:10.37,2013-08-16 20:52:00,
2013-08-16 16:57:00,67.4,53.5,30.08,SE,130,0.0,2.0,61,0.00,SCT,FEW,0.00,142.0,WeatherDisplay:10.37,2013-08-16 20:57:00,
2013-08-16 17:07:00,67.3,53.8,30.08,North,349,2.0,9.0,62,0.00,SCT,FEW,0.00,582.0,WeatherDisplay:10.37,2013-08-16 21:07:00,
2013-08-16 17:17:00,67.1,53.6,30.08,WNW,292,1.0,5.0,62,0.00,SCT,FEW,0.00,104.0,WeatherDisplay:10.37,2013-08-16 21:17:00,
2013-08-16 17:22:00,66.8,55.1,30.08,WNW,284,0.0,1.0,66,0.00,SCT,FEW,0.00,86.0,WeatherDisplay:10.37,2013-08-16 21:22:00,
2013-08-16 17:27:00,66.4,54.7,30.08,WNW,286,0.0,1.0,66,0.00,SCT,FEW,0.00,107.0,WeatherDisplay:10.37,2013-08-16 21:27:00,
2013-08-16 17:32:00,66.0,54.3,30.08,WNW,294,0.0,2.0,66,0.00,SCT,FEW,0.00,137.0,WeatherDisplay:10.37,2013-08-16 21:32:00,
2013-08-16 17:37:00,65.7,55.2,30.08,WNW,298,0.0,1.0,69,0.00,SCT,FEW,0.00,125.0,WeatherDisplay:10.37,2013-08-16 21:37:00,
2013-08-16 17:42:00,65.4,55.0,30.08,NW,304,0.0,2.0,69,0.00,SCT,FEW,0.00,130.0,WeatherDisplay:10.37,2013-08-16 21:42:00,
2013-08-16 17:47:00,65.3,54.9,30.09,West,280,0.0,3.0,69,0.00,SCT,FEW,0.00,151.0,WeatherDisplay:10.37,2013-08-16 21:47:00,
2013-08-16 17:52:00,65.3,54.9,30.09,West,268,0.0,2.0,69,0.00,SCT,FEW,0.00,172.0,WeatherDisplay:10.37,2013-08-16 21:52:00,
2013-08-16 17:57:00,65.4,55.4,30.09,West,270,0.0,1.0,70,0.00,SCT,FEW,0.00,102.0,WeatherDisplay:10.37,2013-08-16 21:57:00,
2013-08-16 18:07:00,65.3,55.6,30.09,NNW,335,0.0,3.0,71,0.00,SCT,FEW,0.00,69.0,WeatherDisplay:10.37,2013-08-16 22:07:00,
2013-08-16 18:17:00,64.7,55.1,30.09,North,358,1.0,3.0,71,0.00,SCT,FEW,0.00,77.0,WeatherDisplay:10.37,2013-08-16 22:17:00,
2013-08-16 18:22:00,64.3,55.0,30.09,North,1,1.0,3.0,72,0.00,SCT,FEW,0.00,72.0,WeatherDisplay:10.37,2013-08-16 22:22:00,
2013-08-16 18:27:00,64.0,55.5,30.09,North,11,0.0,0.0,74,0.00,SCT,FEW,0.00,58.0,WeatherDisplay:10.37,2013-08-16 22:27:00,
2013-08-16 18:32:00,63.7,54.5,30.09,North,353,1.0,9.0,72,0.00,SCT,FEW,0.00,35.0,WeatherDisplay:10.37,2013-08-16 22:32:00,
2013-08-16 18:37:00,63.4,55.0,30.10,NW,319,0.0,1.0,74,0.00,SCT,FEW,0.00,37.0,WeatherDisplay:10.37,2013-08-16 22:37:00,
2013-08-16 18:42:00,63.1,54.7,30.11,WNW,286,0.0,1.0,74,0.00,SCT,FEW,0.00,28.0,WeatherDisplay:10.37,2013-08-16 22:42:00,
2013-08-16 18:47:00,62.4,54.4,30.11,NNW,332,2.0,5.0,75,0.00,SCT,FEW,0.00,23.0,WeatherDisplay:10.37,2013-08-16 22:47:00,
2013-08-16 18:52:00,61.7,53.7,30.11,NNW,333,0.0,4.0,75,0.00,SCT,FEW,0.00,18.0,WeatherDisplay:10.37,2013-08-16 22:52:00,
2013-08-16 18:57:00,61.0,53.7,30.11,NNE,16,0.0,3.0,77,0.00,SCT,FEW,0.00,12.0,WeatherDisplay:10.37,2013-08-16 22:57:00,
2013-08-16 19:07:00,59.8,53.6,30.11,NNW,342,0.0,2.0,80,0.00,OVC,FEW,0.00,11.0,WeatherDisplay:10.37,2013-08-16 23:07:00,
2013-08-16 19:17:00,59.0,53.5,30.12,NNW,344,0.0,3.0,82,0.00,OVC,FEW,0.00,9.0,WeatherDisplay:10.37,2013-08-16 23:17:00,
2013-08-16 19:22:00,58.6,53.1,30.13,NNW,336,0.0,4.0,82,0.00,OVC,FEW,0.00,5.0,WeatherDisplay:10.37,2013-08-16 23:22:00,
2013-08-16 19:27:00,58.3,52.8,30.13,NW,325,0.0,1.0,82,0.00,OVC,FEW,0.00,0.0,WeatherDisplay:10.37,2013-08-16 23:27:00,
2013-08-16 19:32:00,58.0,53.2,30.14,NW,324,0.0,2.0,84,0.05,RA,FEW,0.05,0.0,WeatherDisplay:10.37,2013-08-16 23:32:00,
2013-08-16 19:37:00,57.6,54.4,30.15,NNW,343,0.0,6.0,89,0.17,RA,FEW,0.22,5.0,WeatherDisplay:10.37,2013-08-16 23:37:00,
2013-08-16 19:42:00,56.4,53.5,30.14,North,3,2.0,5.0,90,0.20,RA,FEW,0.42,7.0,WeatherDisplay:10.37,2013-08-16 23:42:00,
2013-08-16 19:47:00,55.4,53.1,30.14,North,356,0.0,5.0,92,0.01,RA,FEW,0.43,5.0,WeatherDisplay:10.37,2013-08-16 23:47:00,
2013-08-16 19:52:00,54.9,52.9,30.13,North,1,0.0,0.0,93,0.01,RA,FEW,0.44,0.0,WeatherDisplay:10.37,2013-08-16 23:52:00,
2013-08-16 19:57:00,54.5,52.8,30.14,North,11,0.0,1.0,94,0.01,RA,FEW,0.45,0.0,WeatherDisplay:10.37,2013-08-16 23:57:00,
2013-08-16 20:07:00,54.0,52.6,30.14,North,11,0.0,1.0,95,0.00,OVC,FEW,0.45,0.0,WeatherDisplay:10.37,2013-08-17 00:07:00,
2013-08-16 20:17:00,53.4,52.0,30.13,North,11,0.0,0.0,95,0.00,OVC,FEW,0.45,0.0,WeatherDisplay:10.37,2013-08-17 00:17:00,
2013-08-16 20:22:00,53.3,51.9,30.13,North,11,0.0,0.0,95,0.00,OVC,FEW,0.45,0.0,WeatherDisplay:10.37,2013-08-17 00:22:00,
2013-08-16 20:27:00,53.3,52.2,30.14,North,11,0.0,1.0,96,0.00,OVC,FEW,0.45,0.0,WeatherDisplay:10.37,2013-08-17 00:27:00,
2013-08-16 20:32:00,53.3,52.2,30.14,North,11,0.0,1.0,96,0.00,OVC,FEW,0.45,0.0,WeatherDisplay:10.37,2013-08-17 00:32:00,
2013-08-16 20:42:00,53.0,51.9,30.15,North,11,0.0,0.0,96,0.00,OVC,FEW,0.45,0.0,WeatherDisplay:10.37,2013-08-17 00:42:00,
2013-08-16 20:47:00,52.7,51.6,30.15,North,11,0.0,0.0,96,0.00,OVC,FEW,0.45,0.0,WeatherDisplay:10.37,2013-08-17 00:47:00,
2013-08-16 20:52:00,52.4,51.3,30.15,North,11,0.0,0.0,96,0.00,OVC,FEW,0.45,0.0,WeatherDisplay:10.37,2013-08-17 00:52:00,
2013-08-16 21:07:00,52.0,50.9,30.15,North,11,0.0,0.0,96,0.00,FEW,FEW,0.45,0.0,WeatherDisplay:10.37,2013-08-17 01:07:00,
2013-08-16 21:17:00,51.6,50.5,30.16,North,11,0.0,0.0,96,0.00,FEW,FEW,0.45,0.0,WeatherDisplay:10.37,2013-08-17 01:17:00,
2013-08-16 21:22:00,51.6,50.8,30.16,North,11,0.0,0.0,97,0.00,FEW,FEW,0.45,0.0,WeatherDisplay:10.37,2013-08-17 01:22:00,
2013-08-16 21:27:00,51.6,50.8,30.16,North,11,0.0,0.0,97,0.00,FEW,FEW,0.45,0.0,WeatherDisplay:10.37,2013-08-17 01:27:00,
2013-08-16 21:32:00,51.4,50.6,30.16,North,11,0.0,1.0,97,0.00,FEW,FEW,0.45,0.0,WeatherDisplay:10.37,2013-08-17 01:32:00,
2013-08-16 21:37:00,51.3,50.5,30.16,North,11,0.0,1.0,97,0.00,FEW,FEW,0.45,0.0,WeatherDisplay:10.37,2013-08-17 01:37:00,
2013-08-16 21:42:00,51.2,50.4,30.16,North,11,0.0,1.0,97,0.00,FEW,FEW,0.45,0.0,WeatherDisplay:10.37,2013-08-17 01:42:00,
2013-08-16 21:47:00,51.2,50.4,30.16,North,11,0.0,0.0,97,0.00,FEW,FEW,0.45,0.0,WeatherDisplay:10.37,2013-08-17 01:47:00,
2013-08-16 21:52:00,51.3,50.5,30.16,North,11,0.0,0.0,97,0.00,FEW,FEW,0.45,0.0,WeatherDisplay:10.37,2013-08-17 01:52:00,
2013-08-16 21:57:00,51.5,50.7,30.16,North,11,0.0,0.0,97,0.00,FEW,FEW,0.45,0.0,WeatherDisplay:10.37,2013-08-17 01:57:00,
2013-08-16 22:07:00,51.6,50.8,30.16,North,11,0.0,1.0,97,0.00,OVC,FEW,0.45,0.0,WeatherDisplay:10.37,2013-08-17 02:07:00,
2013-08-16 22:17:00,51.4,50.6,30.16,North,11,0.0,1.0,97,0.00,OVC,FEW,0.45,0.0,WeatherDisplay:10.37,2013-08-17 02:17:00,
2013-08-16 22:22:00,51.3,50.5,30.16,North,11,0.0,0.0,97,0.00,OVC,FEW,0.45,0.0,WeatherDisplay:10.37,2013-08-17 02:22:00,
2013-08-16 22:27:00,51.2,50.4,30.17,North,11,0.0,0.0,97,0.00,OVC,FEW,0.45,0.0,WeatherDisplay:10.37,2013-08-17 02:27:00,
2013-08-16 22:32:00,51.2,50.4,30.17,North,11,0.0,0.0,97,0.00,OVC,FEW,0.45,0.0,WeatherDisplay:10.37,2013-08-17 02:32:00,
2013-08-16 22:37:00,51.2,50.4,30.16,North,11,0.0,0.0,97,0.00,OVC,FEW,0.45,0.0,WeatherDisplay:10.37,2013-08-17 02:37:00,
2013-08-16 22:42:00,51.3,51.3,30.17,North,11,0.0,0.0,100,0.00,OVC,FEW,0.45,0.0,WeatherDisplay:10.37,2013-08-17 02:42:00,
2013-08-16 22:47:00,51.4,51.4,30.17,North,11,0.0,0.0,100,0.00,OVC,FEW,0.45,0.0,WeatherDisplay:10.37,2013-08-17 02:47:00,
2013-08-16 22:52:00,51.5,51.0,30.17,North,11,0.0,0.0,98,0.00,OVC,FEW,0.45,0.0,WeatherDisplay:10.37,2013-08-17 02:52:00,
2013-08-16 22:57:00,51.6,51.6,30.17,North,11,0.0,0.0,100,0.00,OVC,FEW,0.45,0.0,WeatherDisplay:10.37,2013-08-17 02:57:00,
2013-08-16 23:17:00,51.8,51.8,30.17,North,11,0.0,0.0,100,0.00,RA,FEW,0.45,0.0,WeatherDisplay:10.37,2013-08-17 03:17:00,
2013-08-16 23:22:00,51.7,51.7,30.17,North,11,0.0,0.0,100,0.00,OVC,FEW,0.45,0.0,WeatherDisplay:10.37,2013-08-17 03:22:00,
2013-08-16 23:27:00,51.7,51.7,30.17,North,11,0.0,0.0,100,0.00,OVC,FEW,0.45,0.0,WeatherDisplay:10.37,2013-08-17 03:27:00,
2013-08-16 23:32:00,51.8,51.8,30.17,North,11,0.0,0.0,100,0.00,OVC,FEW,0.45,0.0,WeatherDisplay:10.37,2013-08-17 03:32:00,
2013-08-16 23:37:00,51.8,51.8,30.17,North,11,0.0,0.0,100,0.00,OVC,FEW,0.45,0.0,WeatherDisplay:10.37,2013-08-17 03:37:00,
2013-08-16 23:42:00,51.8,51.8,30.17,North,11,0.0,0.0,100,0.00,OVC,FEW,0.45,0.0,WeatherDisplay:10.37,2013-08-17 03:42:00,
2013-08-16 23:47:00,51.8,51.8,30.17,North,11,0.0,12.0,100,0.00,OVC,FEW,0.45,0.0,WeatherDisplay:10.37,2013-08-17 03:47:00,
2013-08-16 23:52:00,51.8,51.8,30.17,North,11,0.0,0.0,100,0.00,OVC,FEW,0.45,0.0,WeatherDisplay:10.37,2013-08-17 03:52:00,
2013-08-16 23:57:00,51.8,51.8,30.17,North,11,0.0,0.0,100,0.00,OVC,FEW,0.45,0.0,WeatherDisplay:10.37,2013-08-17 03:57:00,